Weather History for Hammond, LA

Change the Weather History Date:

Wednesday, January 23, 2013

  Actual Average (KMSY) Record (KMSY)
Temperature  
Mean Temperature 54 °F -  
Max Temperature 71 °F 63 °F 80 °F (1972)
Min Temperature 37 °F 43 °F 21 °F (1963)
Degree Days  
Heating Degree Days 11    
Growing Degree Days 4 (Base 50)    
Moisture  
Dew Point 46 °F    
Average Humidity 79    
Maximum Humidity 100    
Minimum Humidity 41    
Precipitation  
Precipitation 0.00 in - - ()
Sea Level Pressure  
Sea Level Pressure 30.35 in    
Wind  
Wind Speed 1 mph (South)    
Max Wind Speed 10 mph    
Max Gust Speed -    
Visibility 10 miles    
Events      
Averages and records for this station are not official NWS values.
T = Trace of Precipitation, MM = Missing Value Source: NWS Daily Summary

Daily Weather History Graph

Daily Weather History Graph

Search for Another Location

Airport:

Trip Planner

Search our weather history database for the weather conditions in past years. The results will help you decide how hot, cold, wet, or windy it might be!

Date:

Astronomy

Jan. 23, 2013 Rise Set
Actual Time 6:57 AM CST 5:30 PM CST
Civil Twilight 6:31 AM CST 5:56 PM CST
Nautical Twilight 6:02 AM CST 6:25 PM CST
Astronomical Twilight 5:33 AM CST 6:53 PM CST
Moon 2:44 PM CST (1/23) 4:05 AM CST (1/23)
Length of Visible Light 11h 24m
Length of Day
10h 33m
Waxing Gibbous, 89% of the Moon is Illuminated
Jan 23
Waxing Gibbous
Jan 26
Full
Feb 3
Last Quarter
Feb 10
New
Feb 17
First Quarter

Hourly Weather History & Observations

Time (CST) Temp. Dew Point Humidity Pressure Visibility Wind Dir Wind Speed Gust Speed Precip Events Conditions
12:15 AM 41.0 °F 41.0 °F 100% 30.35 in 10.0 mi Calm Calm - N/A   Clear
12:35 AM 41.0 °F 41.0 °F 100% 30.35 in 10.0 mi Calm Calm - N/A   Clear
12:55 AM 39.2 °F 39.2 °F 100% 30.36 in 10.0 mi Calm Calm - N/A   Clear
1:15 AM 39.2 °F 39.2 °F 100% 30.36 in 10.0 mi Calm Calm - N/A   Clear
1:35 AM 41.0 °F 41.0 °F 100% 30.35 in 10.0 mi Calm Calm - N/A   Clear
1:55 AM 41.0 °F 41.0 °F 100% 30.35 in 10.0 mi Calm Calm - N/A   Clear
2:15 AM 41.0 °F 41.0 °F 100% 30.35 in 10.0 mi Calm Calm - N/A   Clear
2:35 AM 39.2 °F 39.2 °F 100% 30.35 in 10.0 mi Calm Calm - N/A   Clear
2:55 AM 39.2 °F 39.2 °F 100% 30.35 in 10.0 mi Calm Calm - N/A   Clear
3:15 AM 39.2 °F 39.2 °F 100% 30.35 in 10.0 mi Calm Calm - N/A   Clear
3:35 AM 39.2 °F 39.2 °F 100% 30.35 in 10.0 mi Calm Calm - N/A   Clear
3:55 AM 39.2 °F 39.2 °F 100% 30.35 in 10.0 mi Calm Calm - N/A   Clear
4:15 AM 39.2 °F 39.2 °F 100% 30.35 in 10.0 mi Calm Calm - N/A   Clear
4:35 AM 39.2 °F 39.2 °F 100% 30.35 in 10.0 mi Calm Calm - N/A   Clear
4:55 AM 39.2 °F 39.2 °F 100% 30.35 in 10.0 mi Calm Calm - N/A   Clear
5:15 AM 37.4 °F 37.4 °F 100% 30.35 in 10.0 mi Calm Calm - N/A   Clear
5:35 AM 39.2 °F 39.2 °F 100% 30.36 in 10.0 mi Calm Calm - N/A   Clear
5:55 AM 37.4 °F 37.4 °F 100% 30.37 in 10.0 mi Calm Calm - N/A   Clear
6:15 AM 37.4 °F 37.4 °F 100% 30.38 in 10.0 mi Calm Calm - N/A   Scattered Clouds
6:35 AM 37.4 °F 37.4 °F 100% 30.38 in 10.0 mi Calm Calm - N/A   Scattered Clouds
6:55 AM 39.2 °F 39.2 °F 100% 30.38 in 7.0 mi Calm Calm - N/A   Mostly Cloudy
7:15 AM 39.2 °F 39.2 °F 100% 30.39 in 4.0 mi Calm Calm - N/A   Overcast
7:35 AM 41.0 °F 41.0 °F 100% 30.39 in 2.5 mi Calm Calm - N/A   Overcast
7:55 AM 41.0 °F 41.0 °F 100% 30.39 in 4.0 mi Calm Calm - N/A   Overcast
8:15 AM 42.8 °F 42.8 °F 100% 30.40 in 5.0 mi Calm Calm - N/A   Overcast
8:35 AM 46.4 °F 46.4 °F 100% 30.40 in 10.0 mi Calm Calm - N/A   Overcast
8:55 AM 50.0 °F 48.2 °F 94% 30.41 in 7.0 mi Calm Calm - N/A   Overcast
9:15 AM 51.8 °F 51.8 °F 100% 30.41 in 7.0 mi Calm Calm - N/A   Scattered Clouds
9:35 AM 55.4 °F 53.6 °F 94% 30.41 in 10.0 mi Calm Calm - N/A   Clear
9:55 AM 59.0 °F 51.8 °F 77% 30.41 in 10.0 mi SSW 4.6 mph - N/A   Clear
10:15 AM 62.6 °F 51.8 °F 68% 30.41 in 10.0 mi South 4.6 mph - N/A   Clear
10:35 AM 64.4 °F 51.8 °F 64% 30.41 in 10.0 mi South 3.5 mph - N/A   Clear
10:55 AM 66.2 °F 50.0 °F 56% 30.40 in 10.0 mi SW 4.6 mph - N/A   Clear
11:15 AM 66.2 °F 48.2 °F 52% 30.39 in 10.0 mi South 4.6 mph - N/A   Clear
11:35 AM 68.0 °F 48.2 °F 49% 30.39 in 10.0 mi SSW 4.6 mph - N/A   Clear
11:55 AM 68.0 °F 48.2 °F 49% 30.37 in 10.0 mi South 4.6 mph - N/A   Clear
12:15 PM 68.0 °F 48.2 °F 49% 30.36 in 10.0 mi Calm Calm - N/A   Clear
12:35 PM 69.8 °F 48.2 °F 46% 30.35 in 10.0 mi South 3.5 mph - N/A   Clear
12:55 PM 69.8 °F 48.2 °F 46% 30.34 in 10.0 mi South 3.5 mph - N/A   Clear
1:15 PM 69.8 °F 48.2 °F 46% 30.33 in 10.0 mi South 8.1 mph - N/A   Clear
1:35 PM 69.8 °F 50.0 °F 49% 30.33 in 10.0 mi SE 3.5 mph - N/A   Clear
1:55 PM 69.8 °F 50.0 °F 49% 30.33 in 10.0 mi Calm Calm - N/A   Clear
2:15 PM 71.6 °F 48.2 °F 43% 30.32 in 10.0 mi South 8.1 mph - N/A   Clear
2:35 PM 71.6 °F 48.2 °F 43% 30.31 in 10.0 mi South 8.1 mph - N/A   Clear
2:55 PM 71.6 °F 48.2 °F 43% 30.31 in 10.0 mi SSE 9.2 mph - N/A   Clear
3:15 PM 71.6 °F 46.4 °F 41% 30.31 in 10.0 mi South 8.1 mph - N/A   Clear
3:35 PM 69.8 °F 46.4 °F 43% 30.31 in 10.0 mi South 9.2 mph - N/A   Clear
3:55 PM 69.8 °F 46.4 °F 43% 30.31 in 10.0 mi South 10.4 mph - N/A   Clear
4:15 PM 69.8 °F 46.4 °F 43% 30.30 in 10.0 mi South 8.1 mph - N/A   Clear
4:35 PM 69.8 °F 46.4 °F 43% 30.31 in 10.0 mi South 6.9 mph - N/A   Clear
4:55 PM 68.0 °F 48.2 °F 49% 30.31 in 10.0 mi South 5.8 mph - N/A   Clear
5:15 PM 64.4 °F 48.2 °F 56% 30.30 in 10.0 mi South 6.9 mph - N/A   Clear
5:35 PM 60.8 °F 48.2 °F 63% 30.31 in 10.0 mi South 5.8 mph - N/A   Clear
5:55 PM 59.0 °F 48.2 °F 67% 30.31 in 10.0 mi South 5.8 mph - N/A   Clear
6:15 PM 59.0 °F 48.2 °F 67% 30.31 in 10.0 mi South 4.6 mph - N/A   Clear
6:35 PM 59.0 °F 48.2 °F 67% 30.31 in 10.0 mi South 4.6 mph - N/A   Clear
6:55 PM 57.2 °F 48.2 °F 72% 30.31 in 10.0 mi SSE 3.5 mph - N/A   Clear
7:15 PM 55.4 °F 50.0 °F 82% 30.31 in 10.0 mi Calm Calm - N/A   Clear
7:35 PM 57.2 °F 48.2 °F 72% 30.31 in 10.0 mi Calm Calm - N/A   Clear
7:55 PM 57.2 °F 48.2 °F 72% 30.32 in 10.0 mi Calm Calm - N/A   Clear
8:15 PM 55.4 °F 48.2 °F 77% 30.32 in 10.0 mi Calm Calm - N/A   Clear
8:35 PM 53.6 °F 48.2 °F 82% 30.32 in 10.0 mi Calm Calm - N/A   Clear
8:55 PM 53.6 °F 48.2 °F 82% 30.32 in 10.0 mi Calm Calm - N/A   Clear
9:15 PM 55.4 °F 50.0 °F 82% 30.32 in 10.0 mi Calm Calm - N/A   Clear
9:35 PM 55.4 °F 50.0 °F 82% 30.32 in 10.0 mi Calm Calm - N/A   Clear
9:55 PM 53.6 °F 50.0 °F 88% 30.32 in 10.0 mi Calm Calm - N/A   Clear
10:15 PM 51.8 °F 48.2 °F 88% 30.32 in 10.0 mi Calm Calm - N/A   Clear
10:35 PM 51.8 °F 50.0 °F 94% 30.33 in 10.0 mi Calm Calm - N/A   Clear
10:55 PM 50.0 °F 48.2 °F 94% 30.32 in 10.0 mi Calm Calm - N/A   Clear
11:15 PM 50.0 °F 48.2 °F 94% 30.32 in 10.0 mi Calm Calm - N/A   Clear
11:35 PM 48.2 °F 48.2 °F 100% 30.32 in 10.0 mi Calm Calm - N/A   Clear
11:55 PM 48.2 °F 46.4 °F 93% 30.32 in 10.0 mi Calm Calm - N/A   Clear